Temple, TX

11:29 AM CST on December 05, 2019 (GMT -0600)
Draughon-Miller Central Texas Regional

Weather History for KTPL - November, 2019

Change the Weather History Date:

Thursday, November 14, 2019

  Actual Average Record
Temperature  
Mean Temperature 39 °F -  
Max Temperature 46 °F 65 °F 87 °F (2007)
Min Temperature 32 °F 47 °F 25 °F (2018)
Degree Days  
Heating Degree Days 26    
Moisture  
Dew Point 37 °F    
Average Humidity 96    
Maximum Humidity 100    
Minimum Humidity 74    
Precipitation  
Precipitation 0.31 in - - ()
Sea Level Pressure  
Sea Level Pressure 30.32 in    
Wind  
Wind Speed 3 mph (North)    
Max Wind Speed 10 mph    
Max Gust Speed -    
Visibility 5 miles    
Events Fog , Rain    
Averages and records for this station are not official NWS values.
T = Trace of Precipitation, MM = Missing Value Source: NWS Daily Summary

Daily Weather History Graph

Daily Weather History Graph

Search for Another Location

Airport or City:

Astronomy

Nov. 14, 2019 Rise Set
Actual Time 6:55 AM CST 5:32 PM CST
Civil Twilight 6:30 AM CST 5:57 PM CST
Nautical Twilight 6:00 AM CST 6:26 PM CST
Astronomical Twilight 5:32 AM CST 6:55 PM CST
Moon 7:23 PM CST (11/14) 8:48 AM CST (11/14)
Length of Visible Light 11h 27m
Length of Day
10h 36m
Waning Gibbous, 95% of the Moon is Illuminated
Nov 14
Waning Gibbous
Nov 19
Last Quarter
Nov 26
New
Dec 4
First Quarter
Dec 11
Full

Hourly Weather History & Observations

Time (CST) Temp. Windchill Dew Point Humidity Pressure Visibility Wind Dir Wind Speed Gust Speed Precip Events Conditions
12:51 AM 39.0 °F 35.7 °F 35.1 °F 86% 30.16 in 10.0 mi South 4.6 mph - 0.00 in Rain Light Rain
1:51 AM 39.0 °F - 33.1 °F 79% 30.17 in 10.0 mi Calm Calm - 0.00 in   Overcast
2:51 AM 39.9 °F 37.8 °F 34.0 °F 79% 30.17 in 10.0 mi ESE 3.5 mph - N/A   Overcast
3:51 AM 39.9 °F - 33.1 °F 77% 30.17 in 10.0 mi Calm Calm - 0.00 in   Overcast
4:51 AM 39.0 °F 36.8 °F 37.9 °F 96% 30.19 in 10.0 mi North 3.5 mph - 0.00 in Rain Light Rain
5:51 AM 39.9 °F 37.8 °F 36.0 °F 86% 30.22 in 10.0 mi ESE 3.5 mph - 0.00 in   Overcast
6:51 AM 37.9 °F - 36.0 °F 93% 30.24 in 8.0 mi Calm Calm - 0.00 in Rain Light Rain
7:32 AM 37.4 °F - 37.4 °F 100% 30.26 in 2.5 mi Calm Calm - 0.09 in Rain Rain
7:51 AM 37.9 °F - 37.9 °F 100% 30.26 in 3.0 mi Calm Calm - 0.13 in Rain Rain
8:04 AM 37.4 °F - 37.4 °F 100% 30.27 in 3.0 mi Calm Calm - 0.01 in Rain Rain
8:51 AM 39.0 °F 36.8 °F 39.0 °F 100% 30.28 in 5.0 mi NNE 3.5 mph - 0.04 in Rain Light Rain
9:18 AM 39.2 °F 37.0 °F 39.2 °F 100% 30.29 in 5.0 mi NNE 3.5 mph - 0.03 in Rain Light Rain
9:51 AM 39.0 °F 36.8 °F 39.0 °F 100% 30.31 in 4.0 mi North 3.5 mph - 0.08 in Rain Light Rain
10:48 AM 41.0 °F 37.1 °F 41.0 °F 100% 30.32 in 9.0 mi North 5.8 mph - 0.04 in Rain Light Rain
10:51 AM 41.0 °F 36.4 °F 41.0 °F 100% 30.33 in 8.0 mi NNW 6.9 mph - 0.04 in Rain Light Rain
11:20 AM 41.0 °F 35.2 °F 41.0 °F 100% 30.33 in 10.0 mi North 9.2 mph - 0.00 in Rain Light Rain
11:51 AM 41.0 °F 34.7 °F 41.0 °F 100% 30.33 in 7.0 mi North 10.4 mph - 0.00 in Rain Light Rain
12:27 PM 41.0 °F 36.4 °F 41.0 °F 100% 30.32 in 5.0 mi North 6.9 mph - 0.01 in Rain Light Rain
12:51 PM 41.0 °F 36.4 °F 41.0 °F 100% 30.33 in 8.0 mi North 6.9 mph - 0.01 in Rain Light Rain
1:41 PM 41.0 °F 38.0 °F 41.0 °F 100% 30.32 in 5.0 mi NE 4.6 mph - 0.00 in Rain Light Rain
1:51 PM 41.0 °F 38.0 °F 41.0 °F 100% 30.32 in 6.0 mi NE 4.6 mph - 0.00 in Rain Light Rain
2:51 PM 44.1 °F - 42.1 °F 93% 30.31 in 10.0 mi Calm Calm - 0.00 in   Overcast
3:51 PM 46.0 °F 44.8 °F 41.0 °F 83% 30.30 in 10.0 mi NE 3.5 mph - 0.01 in   Overcast
4:51 PM 46.9 °F - 39.0 °F 74% 30.31 in 10.0 mi Calm Calm - N/A   Clear
5:51 PM 44.1 °F - 39.9 °F 85% 30.32 in 10.0 mi Calm Calm - N/A   Clear
6:51 PM 39.9 °F - 39.9 °F 100% 30.34 in 8.0 mi Calm Calm - N/A   Clear
7:51 PM 37.9 °F - 37.9 °F 100% 30.35 in 0.8 mi Calm Calm - N/A   Clear
8:18 PM 37.4 °F - 37.4 °F 100% 30.36 in 0.5 mi Calm Calm - N/A Fog Fog
8:26 PM 37.4 °F - 37.4 °F 100% 30.37 in 0.8 mi Calm Calm - N/A   Mist
8:34 PM 37.4 °F - 37.4 °F 100% 30.37 in 0.2 mi Calm Calm - N/A Fog Fog
8:51 PM 37.0 °F - 37.0 °F 100% 30.38 in 0.2 mi Calm Calm - N/A Fog Fog
9:07 PM 35.6 °F - 35.6 °F 100% 30.38 in 0.2 mi Calm Calm - N/A Fog Fog
9:21 PM 37.4 °F 34.9 °F 37.4 °F 100% 30.38 in 0.5 mi NNW 3.5 mph - N/A Fog Fog
9:29 PM 35.6 °F 32.8 °F 35.6 °F 100% 30.38 in 0.2 mi NNW 3.5 mph - N/A Fog Fog
9:41 PM 33.8 °F 30.8 °F 33.8 °F 100% 30.39 in 0.5 mi North 3.5 mph - N/A Fog Fog
9:44 PM 33.8 °F 30.8 °F 33.8 °F 100% 30.39 in 1.0 mi North 3.5 mph - N/A   Mist
9:49 PM 33.8 °F 30.8 °F 33.8 °F 100% 30.39 in 2.0 mi North 3.5 mph - N/A   Partly Cloudy
9:51 PM 33.1 °F 30.0 °F 33.1 °F 100% 30.39 in 2.5 mi NNW 3.5 mph - N/A   Partly Cloudy
10:11 PM 33.8 °F - 33.8 °F 100% 30.39 in 1.0 mi Calm Calm - N/A   Clear
10:44 PM 33.8 °F 30.8 °F 33.8 °F 100% 30.40 in 1.0 mi NW 3.5 mph - N/A   Clear
10:46 PM 33.8 °F 30.8 °F 33.8 °F 100% 30.40 in 2.0 mi NW 3.5 mph - N/A   Clear
10:51 PM 33.1 °F - 33.1 °F 100% 30.40 in 1.2 mi Calm Calm - N/A   Clear
11:02 PM 32.0 °F - - N/A% 30.40 in 4.0 mi Calm Calm - N/A   Haze
11:51 PM 32.0 °F 26.4 °F - N/A% 30.41 in 10.0 mi NNW 5.8 mph - N/A   Clear